Regional Weather Roundup
Issued by NWS

Home | Current Version | Previous Version | Graphics & Text | Print | Product List | Glossary On
Versions: 1 2 3 4 5 6 7 8 9 10 11 12 13 14 15 16 17 18 19 20 21 22 23 24 25 26 27 28 29 30 31 32 33 34 35 36 37 38 39 40 41 42 43 44 45 46 47 48 49 50
000
ASUS43 KFSD 010002
RWRSD

WEATHER ROUNDUP FOR SOUTH DAKOTA
NATIONAL WEATHER SERVICE SIOUX FALLS SD
700 PM CDT TUE MAY 31 2016

NOTE: "FAIR" INDICATES FEW OR NO CLOUDS BELOW 12,000 FEET WITH NO
SIGNIFICANT WEATHER AND/OR OBSTRUCTIONS TO VISIBILITY.


SDZ001>005-009-010-012>017-010100-
NORTHWEST AND NORTH CENTRAL SOUTH DAKOTA

CITY           SKY/WX    TMP DP  RH WIND       PRES   REMARKS
BUFFALO          N/A     57  48  72 NW25      29.91R
FAITH            N/A     60  42  51 NW36G44   29.91R
MOBRIDGE       CLOUDY    60  47  61 W30G43    29.75R
$$

SDZ012>016-024>037-041>051-057-063-072>074-010100-
SOUTHWEST AND SOUTH CENTRAL SOUTH DAKOTA

CITY           SKY/WX    TMP DP  RH WIND       PRES   REMARKS
RAPID CTY ARPT PTSUNNY   59  41  51 NW26G36   30.03R
PIERRE         CLOUDY    63  46  54 W32G43    29.88R
CUSTER         CLOUDY    53  34  48 NW15G28   30.08R
PHILIP         PTSUNNY   60  46  59 NW30G40   29.96R
PINE RIDGE     MOSUNNY   66  38  35 NW18G30   30.01R
WINNER         FAIR      68  44  42 NW28G38   29.92R
$$

SDZ004>011-016>023-039-040-010100-
NORTHEAST SOUTH DAKOTA

CITY           SKY/WX    TMP DP  RH WIND       PRES   REMARKS
ABERDEEN       PTSUNNY   64  48  56 W26G38    29.71F
WATERTOWN      MOSUNNY   68  44  42 SW22G40   29.79R
BROOKINGS      PTSUNNY   69  51  52 SW9       29.82
SISSETON         N/A     68  45  43 W25G31    29.72F
$$

SDZ017-020-022-023-036>040-048>070-010100-
SOUTHEAST SOUTH DAKOTA

CITY           SKY/WX    TMP DP  RH WIND       PRES   REMARKS
SIOUX FALLS    MOSUNNY   72  49  44 S10       29.85F
HURON          MOSUNNY   69  46  43 W24G35    29.82R
MITCHELL       SUNNY     72  47  40 W20G29    29.85R
YANKTON        SUNNY     73  46  38 SW9G18    29.85S
$$

ABBREVIATIONS USED IN REMARKS
   TC - TEMPERATURE IN CELSIUS
  WCI - WIND CHILL INDEX
   HX - HEAT INDEX
  VSB - VISIBILITY





USA.gov is the U.S. government's official web portal to all federal, state and local government web resources and services.